Change the Weather History Date:

Monday, April 22, 2013

  Actual Average Record
Temperature  
Mean Temperature 46 °F -  
Max Temperature 57 °F 62 °F 80 °F (2001)
Min Temperature 34 °F 41 °F 34 °F (2013)
Degree Days  
Heating Degree Days 19    
Month to date heating degree days 256  
Moisture  
Dew Point 29 °F    
Average Humidity 59    
Maximum Humidity 82    
Minimum Humidity 35    
Precipitation  
Precipitation 0.00 in - - ()
Month to date precipitation 1.66  
Year to date precipitation 7.47  
Sea Level Pressure  
Sea Level Pressure 30.52 in    
Wind  
Wind Speed 5 mph (East)    
Max Wind Speed 14 mph    
Max Gust Speed 20 mph    
Visibility 10 miles    
Events      
Averages and records for this station are not official NWS values.
T = Trace of Precipitation, MM = Missing Value Source: NWS Daily Summary

Daily Weather History Graph

Daily Weather History Graph

Search for Another Location

Airport or City:

Trip Planner

Search our weather history database for the weather conditions in past years. The results will help you decide how hot, cold, wet, or windy it might be!

Date:

Astronomy

Apr. 22, 2013 Rise Set
Actual Time 6:23 AM EDT 7:56 PM EDT
Civil Twilight 5:54 AM EDT 8:24 PM EDT
Nautical Twilight 5:20 AM EDT 8:59 PM EDT
Astronomical Twilight 4:44 AM EDT 9:35 PM EDT
Moon 4:43 PM EDT (4/22) 4:16 AM EDT (4/22)
Length of Visible Light 14h 30m
Length of Day
13h 33m
Waxing Gibbous, 87% of the Moon is Illuminated
Apr 22
Waxing Gibbous
Apr 25
Full
May 2
Last Quarter
May 9
New
May 18
First Quarter

Hourly Weather History & Observations

Time (EDT) Temp. Windchill Dew Point Humidity Pressure Visibility Wind Dir Wind Speed Gust Speed Precip Events Conditions
12:53 AM 42.1 °F 39.2 °F 27.0 °F 55% 30.59 in 10.0 mi East 4.6 mph - N/A   Clear
1:53 AM 42.1 °F 40.2 °F 26.1 °F 53% 30.58 in 10.0 mi East 3.5 mph - N/A   Clear
2:53 AM 39.9 °F - 27.0 °F 60% 30.58 in 10.0 mi Calm Calm - N/A   Clear
3:53 AM 39.0 °F 35.7 °F 28.0 °F 65% 30.59 in 10.0 mi ESE 4.6 mph - N/A   Clear
4:53 AM 39.0 °F - 30.0 °F 70% 30.58 in 10.0 mi Calm Calm - N/A   Clear
5:53 AM 39.9 °F 36.7 °F 28.9 °F 65% 30.58 in 10.0 mi East 4.6 mph - N/A   Clear
6:53 AM 35.1 °F - 30.0 °F 82% 30.59 in 10.0 mi Calm Calm - N/A   Clear
7:53 AM 42.1 °F 39.2 °F 28.9 °F 60% 30.59 in 10.0 mi NE 4.6 mph - N/A   Clear
8:53 AM 44.1 °F 40.1 °F 28.0 °F 53% 30.61 in 10.0 mi East 6.9 mph - N/A   Clear
9:53 AM 46.9 °F - 27.0 °F 46% 30.60 in 10.0 mi ESE 8.1 mph - N/A   Clear
10:53 AM 46.9 °F - 27.0 °F 46% 30.60 in 10.0 mi East 9.2 mph - N/A   Clear
12:53 PM 52.0 °F - 28.9 °F 41% 30.54 in 10.0 mi ENE 9.2 mph - N/A   Clear
1:53 PM 54.0 °F - 27.0 °F 35% 30.51 in 10.0 mi ESE 8.1 mph - N/A   Clear
2:53 PM 55.0 °F - 28.0 °F 35% 30.49 in 10.0 mi Variable 6.9 mph - N/A   Clear
3:53 PM 57.0 °F - 30.0 °F 36% 30.46 in 10.0 mi SE 9.2 mph - N/A   Clear
4:53 PM 55.9 °F - 28.9 °F 36% 30.44 in 10.0 mi Variable 4.6 mph - N/A   Clear
5:53 PM 55.9 °F - 30.9 °F 39% 30.43 in 10.0 mi ESE 6.9 mph - N/A   Clear
6:53 PM 55.0 °F - 30.9 °F 40% 30.43 in 10.0 mi ESE 9.2 mph - N/A   Clear
7:53 PM 53.1 °F - 30.9 °F 43% 30.42 in 10.0 mi SE 6.9 mph - N/A   Clear
8:53 PM 50.0 °F - 33.1 °F 52% 30.45 in 10.0 mi ESE 6.9 mph - N/A   Overcast
9:53 PM 48.0 °F - 33.1 °F 56% 30.46 in 10.0 mi East 4.6 mph - N/A   Overcast
10:53 PM 45.0 °F 40.6 °F 32.0 °F 60% 30.46 in 10.0 mi ESE 8.1 mph - N/A   Clear
11:53 PM 44.1 °F 39.5 °F 30.9 °F 60% 30.45 in 10.0 mi ESE 8.1 mph - N/A   Clear